QPF
0.01 0.02 0.02 0.04 0.04 0.03 0.02 0.02 0.02 0.02 0.03 0.05 0.05 0.05 0.04 0.04 0.05 0.05 0.05 0.05 0.05 0.04 0.04 0.05 0.06 0.06 0.06 0.05 0.05 0.05 0.06 0.05 0.05 0.05 0.05 0.06 0.06 0.07 0.08 0.09 0.10 0.09 0.11
0.01 0.01 0.02 0.02 0.03 0.02 0.02 0.03 0.03 0.02 0.02 0.03 0.04 0.04 0.04 0.03 0.03 0.04 0.05 0.05 0.05 0.04 0.02 0.03 0.03 0.06 0.05 0.03 0.04 0.04 0.05 0.04 0.06 0.05 0.05 0.04 0.06 0.08 0.08 0.10 0.13 0.13 0.16
0.01 0.01 0.01 0.01 0.02 0.03 0.04 0.04 0.03 0.02 0.02 0.03 0.04 0.04 0.04 0.04 0.04 0.04 0.05 0.05 0.05 0.05 0.04 0.03 0.03 0.04 0.04 0.03 0.03 0.03 0.04 0.05 0.06 0.06 0.06 0.06 0.05 0.04 0.05 0.08 0.11 0.15 0.19
0.01 0.01 0.00 0.01 0.02 0.03 0.06 0.07 0.03 0.03 0.03 0.03 0.03 0.03 0.03 0.03 0.04 0.04 0.04 0.04 0.04 0.05 0.05 0.04 0.04 0.04 0.04 0.05 0.03 0.03 0.04 0.05 0.05 0.05 0.06 0.06 0.05 0.05 0.04 0.06 0.09 0.11 0.14
0.01 0.01 0.01 0.01 0.01 0.03 0.10 0.10 0.05 0.05 0.05 0.05 0.05 0.04 0.04 0.03 0.03 0.04 0.03 0.03 0.03 0.05 0.05 0.05 0.07 0.06 0.06 0.05 0.04 0.05 0.06 0.05 0.04 0.04 0.05 0.05 0.05 0.05 0.05 0.04 0.06 0.08 0.08
0.01 0.01 0.02 0.01 0.01 0.02 0.10 0.10 0.05 0.05 0.05 0.06 0.06 0.06 0.06 0.05 0.04 0.03 0.03 0.03 0.04 0.04 0.06 0.07 0.08 0.08 0.06 0.04 0.04 0.04 0.05 0.06 0.05 0.04 0.05 0.06 0.06 0.07 0.07 0.04 0.04 0.05 0.05
0.01 0.01 0.03 0.01 0.00 0.01 0.03 0.06 0.04 0.04 0.05 0.05 0.06 0.07 0.06 0.06 0.05 0.03 0.03 0.03 0.03 0.03 0.05 0.07 0.08 0.09 0.08 0.06 0.06 0.05 0.06 0.08 0.07 0.07 0.06 0.05 0.05 0.07 0.08 0.06 0.05 0.06 0.05
0.02 0.04 0.03 0.01 0.01 0.01 0.01 0.02 0.02 0.03 0.04 0.05 0.05 0.05 0.05 0.05 0.05 0.05 0.04 0.04 0.03 0.02 0.03 0.06 0.07 0.06 0.07 0.07 0.07 0.06 0.08 0.08 0.06 0.06 0.06 0.05 0.05 0.06 0.08 0.08 0.07 0.07 0.06
0.03 0.03 0.03 0.01 0.01 0.01 0.01 0.01 0.01 0.01 0.02 0.04 0.04 0.04 0.03 0.04 0.04 0.05 0.06 0.04 0.04 0.05 0.04 0.05 0.07 0.07 0.10 0.09 0.07 0.06 0.05 0.05 0.03 0.03 0.03 0.03 0.03 0.04 0.06 0.08 0.07 0.07 0.06
0.04 0.03 0.02 0.01 0.01 0.01 0.01 0.01 0.01 0.02 0.03 0.03 0.02 0.02 0.02 0.03 0.03 0.05 0.05 0.06 0.07 0.07 0.06 0.06 0.08 0.08 0.09 0.08 0.07 0.06 0.06 0.05 0.03 0.03 0.03 0.02 0.03 0.04 0.04 0.05 0.05 0.06 0.06
0.03 0.03 0.03 0.02 0.01 0.01 0.01 0.01 0.02 0.02 0.02 0.03 0.03 0.03 0.03 0.04 0.04 0.04 0.04 0.05 0.06 0.06 0.05 0.06 0.07 0.07 0.08 0.09 0.08 0.06 0.06 0.04 0.03 0.02 0.02 0.02 0.02 0.02 0.03 0.03 0.04 0.06 0.07
0.02 0.02 0.01 0.02 0.02 0.02 0.02 0.02 0.02 0.02 0.03 0.03 0.03 0.03 0.05 0.06 0.05 0.04 0.03 0.04 0.06 0.07 0.06 0.08 0.08 0.07 0.07 0.07 0.08 0.06 0.05 0.05 0.04 0.03 0.03 0.03 0.03 0.02 0.02 0.02 0.02 0.03 0.04
0.02 0.03 0.02 0.02 0.02 0.02 0.02 0.02 0.02 0.01 0.02 0.03 0.03 0.03 0.04 0.04 0.04 0.04 0.04 0.05 0.05 0.07 0.09 0.08 0.07 0.07 0.05 0.04 0.05 0.05 0.05 0.06 0.05 0.05 0.05 0.05 0.04 0.02 0.03 0.03 0.03 0.03 0.04
0.01 0.02 0.01 0.01 0.01 0.01 0.01 0.01 0.01 0.01 0.02 0.02 0.03 0.03 0.03 0.03 0.03 0.04 0.04 0.04 0.04 0.06 0.09 0.08 0.08 0.07 0.06 0.05 0.05 0.06 0.06 0.07 0.07 0.07 0.08 0.07 0.06 0.05 0.06 0.06 0.05 0.06 0.06
0.01 0.01 0.01 0.01 0.01 0.01 0.01 0.01 0.01 0.02 0.02 0.02 0.02 0.02 0.03 0.02 0.02 0.03 0.03 0.03 0.03 0.06 0.07 0.07 0.08 0.07 0.08 0.07 0.06 0.07 0.08 0.09 0.10 0.10 0.11 0.12 0.11 0.10 0.10 0.09 0.08 0.09 0.09
0.02 0.01 0.01 0.01 0.01 0.01 0.01 0.02 0.03 0.03 0.04 0.03 0.03 0.03 0.03 0.02 0.02 0.04 0.05 0.04 0.03 0.04 0.04 0.04 0.05 0.05 0.05 0.08 0.11 0.10 0.10 0.12 0.16 0.20 0.20 0.20 0.17 0.13 0.10 0.09 0.09 0.09 0.09
0.02 0.02 0.01 0.01 0.03 0.03 0.03 0.03 0.04 0.04 0.04 0.05 0.05 0.05 0.05 0.04 0.03 0.04 0.05 0.05 0.05 0.06 0.04 0.04 0.04 0.04 0.04 0.06 0.08 0.08 0.07 0.07 0.10 0.15 0.17 0.15 0.14 0.12 0.09 0.07 0.06 0.06 0.06
0.01 0.01 0.02 0.03 0.04 0.04 0.05 0.05 0.04 0.05 0.05 0.05 0.05 0.05 0.06 0.06 0.05 0.04 0.05 0.05 0.06 0.07 0.05 0.04 0.04 0.04 0.04 0.04 0.03 0.04 0.04 0.04 0.04 0.04 0.06 0.07 0.07 0.09 0.09 0.08 0.06 0.04 0.03
0.01 0.02 0.03 0.03 0.04 0.04 0.06 0.08 0.05 0.04 0.04 0.04 0.05 0.06 0.07 0.07 0.06 0.08 0.08 0.05 0.05 0.05 0.05 0.05 0.05 0.04 0.04 0.04 0.03 0.03 0.02 0.03 0.02 0.02 0.03 0.03 0.02 0.03 0.04 0.06 0.07 0.05 0.03
0.01 0.02 0.02 0.02 0.02 0.03 0.04 0.07 0.07 0.06 0.07 0.07 0.07 0.07 0.06 0.05 0.04 0.04 0.05 0.05 0.06 0.06 0.05 0.04 0.04 0.03 0.03 0.05 0.05 0.05 0.04 0.04 0.03 0.02 0.02 0.03 0.02 0.02 0.02 0.01 0.02 0.03 0.03
0.01 0.01 0.01 0.02 0.02 0.02 0.03 0.03 0.04 0.05 0.07 0.07 0.07 0.08 0.07 0.05 0.03 0.04 0.05 0.05 0.04 0.04 0.04 0.04 0.05 0.05 0.05 0.05 0.05 0.05 0.06 0.05 0.04 0.03 0.02 0.03 0.03 0.02 0.02 0.02 0.02 0.02 0.01
0.02 0.02 0.02 0.03 0.03 0.03 0.03 0.04 0.07 0.09 0.09 0.08 0.07 0.06 0.05 0.05 0.06 0.07 0.07 0.06 0.05 0.05 0.04 0.04 0.04 0.05 0.04 0.03 0.03 0.02 0.02 0.02 0.02 0.02 0.02 0.02 0.02 0.02 0.02 0.02 0.02 0.02 0.01
0.03 0.03 0.03 0.03 0.03 0.04 0.05 0.07 0.10 0.12 0.14 0.12 0.09 0.06 0.04 0.04 0.04 0.06 0.07 0.07 0.04 0.02 0.02 0.02 0.02 0.02 0.02 0.02 0.02 0.02 0.02 0.02 0.01 0.01 0.01 0.01 0.01 0.02 0.01 0.02 0.02 0.01 0.01
0.06 0.04 0.03 0.02 0.02 0.03 0.05 0.08 0.09 0.10 0.10 0.11 0.09 0.06 0.04 0.04 0.04 0.04 0.04 0.03 0.02 0.02 0.03 0.02 0.02 0.02 0.01 0.01 0.01 0.02 0.02 0.02 0.01 0.01 0.01 0.01 0.01 0.01 0.01 0.01 0.01 0.01 0.01
0.07 0.04 0.03 0.02 0.03 0.03 0.04 0.05 0.05 0.05 0.05 0.06 0.06 0.05 0.04 0.04 0.03 0.03 0.03 0.03 0.02 0.03 0.03 0.02 0.02 0.02 0.02 0.03 0.03 0.03 0.03 0.03 0.03 0.02 0.01 0.01 0.01 0.01 0.01 0.02 0.02 0.02 0.02
0.05 0.03 0.02 0.02 0.02 0.02 0.02 0.02 0.03 0.03 0.02 0.02 0.02 0.03 0.04 0.05 0.04 0.05 0.04 0.04 0.03 0.03 0.03 0.04 0.04 0.04 0.04 0.04 0.04 0.03 0.02 0.02 0.02 0.02 0.01 0.01 0.01 0.01 0.01 0.01 0.02 0.02 0.02
MSLP
1013.77 1013.83 1013.94 1014.08 1014.21 1014.34 1014.46 1014.59 1014.77 1015.01 1015.30 1015.62 1015.95 1016.24 1016.45 1016.54 1016.52 1016.41 1016.24 1016.07 1015.94 1015.88 1015.93 1016.08 1016.30 1016.56 1016.82 1017.06 1017.25 1017.37 1017.45 1017.48 1017.48 1017.45 1017.40 1017.31 1017.16 1016.96 1016.70 1016.40 1016.07 1015.76 1015.49
1014.25 1014.25 1014.29 1014.35 1014.39 1014.41 1014.45 1014.53 1014.68 1014.93 1015.27 1015.67 1016.09 1016.46 1016.72 1016.85 1016.83 1016.67 1016.44 1016.19 1015.99 1015.87 1015.86 1015.98 1016.19 1016.45 1016.72 1016.96 1017.16 1017.30 1017.39 1017.45 1017.47 1017.48 1017.46 1017.40 1017.28 1017.08 1016.80 1016.44 1016.04 1015.64 1015.26
1014.76 1014.73 1014.75 1014.75 1014.72 1014.67 1014.63 1014.64 1014.75 1014.98 1015.34 1015.78 1016.24 1016.66 1016.97 1017.12 1017.09 1016.91 1016.63 1016.33 1016.06 1015.88 1015.82 1015.90 1016.07 1016.31 1016.56 1016.79 1016.98 1017.11 1017.21 1017.28 1017.33 1017.38 1017.41 1017.39 1017.31 1017.15 1016.87 1016.51 1016.07 1015.60 1015.15
1015.25 1015.23 1015.25 1015.24 1015.18 1015.08 1014.97 1014.91 1014.96 1015.15 1015.47 1015.90 1016.37 1016.81 1017.13 1017.29 1017.26 1017.07 1016.77 1016.42 1016.11 1015.89 1015.79 1015.82 1015.95 1016.14 1016.35 1016.54 1016.70 1016.81 1016.90 1016.97 1017.05 1017.14 1017.22 1017.26 1017.24 1017.13 1016.90 1016.55 1016.12 1015.63 1015.14
1015.66 1015.69 1015.75 1015.76 1015.70 1015.57 1015.41 1015.28 1015.25 1015.36 1015.62 1016.00 1016.44 1016.85 1017.16 1017.32 1017.29 1017.11 1016.80 1016.45 1016.12 1015.88 1015.74 1015.73 1015.80 1015.94 1016.09 1016.23 1016.34 1016.42 1016.49 1016.56 1016.66 1016.78 1016.91 1017.01 1017.06 1017.01 1016.85 1016.55 1016.16 1015.69 1015.20
1015.97 1016.06 1016.18 1016.24 1016.20 1016.05 1015.85 1015.66 1015.55 1015.57 1015.74 1016.03 1016.40 1016.76 1017.05 1017.20 1017.18 1017.00 1016.72 1016.38 1016.06 1015.81 1015.65 1015.60 1015.63 1015.70 1015.80 1015.88 1015.94 1015.98 1016.02 1016.08 1016.19 1016.34 1016.51 1016.67 1016.78 1016.80 1016.71 1016.48 1016.15 1015.73 1015.28
1016.15 1016.31 1016.50 1016.61 1016.60 1016.46 1016.23 1015.98 1015.79 1015.71 1015.78 1015.97 1016.25 1016.55 1016.79 1016.92 1016.91 1016.76 1016.50 1016.20 1015.90 1015.66 1015.49 1015.41 1015.40 1015.43 1015.47 1015.50 1015.51 1015.51 1015.54 1015.60 1015.71 1015.87 1016.08 1016.28 1016.44 1016.52 1016.49 1016.34 1016.08 1015.74 1015.36
1016.20 1016.43 1016.68 1016.84 1016.86 1016.73 1016.49 1016.20 1015.93 1015.76 1015.73 1015.82 1016.01 1016.22 1016.42 1016.52 1016.51 1016.39 1016.17 1015.91 1015.64 1015.42 1015.26 1015.17 1015.13 1015.12 1015.12 1015.11 1015.09 1015.08 1015.09 1015.15 1015.27 1015.45 1015.67 1015.90 1016.09 1016.21 1016.23 1016.15 1015.96 1015.70 1015.40
1016.13 1016.42 1016.71 1016.92 1016.97 1016.86 1016.61 1016.29 1015.97 1015.74 1015.61 1015.61 1015.71 1015.85 1015.99 1016.06 1016.04 1015.93 1015.75 1015.52 1015.29 1015.09 1014.94 1014.85 1014.80 1014.77 1014.75 1014.73 1014.71 1014.70 1014.72 1014.79 1014.93 1015.12 1015.35 1015.58 1015.78 1015.93 1015.97 1015.93 1015.80 1015.61 1015.40
1015.97 1016.30 1016.63 1016.87 1016.95 1016.85 1016.61 1016.28 1015.95 1015.67 1015.49 1015.41 1015.43 1015.50 1015.58 1015.61 1015.57 1015.46 1015.28 1015.08 1014.87 1014.69 1014.56 1014.47 1014.43 1014.40 1014.39 1014.38 1014.38 1014.40 1014.45 1014.55 1014.71 1014.91 1015.14 1015.37 1015.56 1015.70 1015.75 1015.72 1015.63 1015.50 1015.36
1015.76 1016.13 1016.48 1016.74 1016.83 1016.75 1016.54 1016.23 1015.90 1015.61 1015.40 1015.29 1015.24 1015.25 1015.26 1015.23 1015.15 1015.02 1014.83 1014.63 1014.43 1014.26 1014.13 1014.06 1014.03 1014.03 1014.04 1014.07 1014.12 1014.19 1014.29 1014.43 1014.62 1014.83 1015.06 1015.28 1015.45 1015.56 1015.60 1015.57 1015.49 1015.39 1015.30
1015.55 1015.94 1016.31 1016.57 1016.68 1016.63 1016.45 1016.18 1015.89 1015.63 1015.42 1015.29 1015.20 1015.14 1015.08 1014.99 1014.85 1014.66 1014.44 1014.21 1014.00 1013.83 1013.71 1013.65 1013.63 1013.66 1013.72 1013.80 1013.91 1014.04 1014.21 1014.40 1014.62 1014.86 1015.09 1015.29 1015.43 1015.51 1015.52 1015.47 1015.38 1015.30 1015.24
1015.39 1015.80 1016.16 1016.42 1016.54 1016.52 1016.39 1016.19 1015.96 1015.75 1015.57 1015.44 1015.32 1015.21 1015.08 1014.91 1014.69 1014.43 1014.16 1013.88 1013.64 1013.45 1013.33 1013.27 1013.28 1013.34 1013.44 1013.57 1013.74 1013.94 1014.16 1014.41 1014.67 1014.93 1015.16 1015.35 1015.47 1015.52 1015.50 1015.42 1015.33 1015.24 1015.19
1015.31 1015.73 1016.08 1016.32 1016.45 1016.46 1016.39 1016.27 1016.12 1015.98 1015.85 1015.73 1015.60 1015.45 1015.25 1014.99 1014.68 1014.34 1014.00 1013.67 1013.38 1013.16 1013.02 1012.96 1012.98 1013.06 1013.19 1013.37 1013.58 1013.83 1014.10 1014.40 1014.69 1014.97 1015.22 1015.40 1015.52 1015.55 1015.51 1015.41 1015.30 1015.20 1015.15
1015.34 1015.75 1016.07 1016.29 1016.42 1016.47 1016.46 1016.41 1016.36 1016.30 1016.22 1016.13 1015.99 1015.80 1015.53 1015.20 1014.81 1014.39 1013.96 1013.57 1013.24 1012.99 1012.82 1012.75 1012.76 1012.84 1012.98 1013.17 1013.41 1013.68 1013.98 1014.30 1014.63 1014.93 1015.19 1015.39 1015.50 1015.54 1015.49 1015.40 1015.28 1015.17 1015.12
1015.47 1015.84 1016.12 1016.32 1016.44 1016.52 1016.57 1016.60 1016.63 1016.65 1016.64 1016.57 1016.43 1016.21 1015.89 1015.49 1015.02 1014.53 1014.04 1013.60 1013.22 1012.93 1012.73 1012.63 1012.62 1012.67 1012.79 1012.97 1013.19 1013.46 1013.76 1014.09 1014.43 1014.75 1015.03 1015.25 1015.39 1015.45 1015.43 1015.35 1015.25 1015.15 1015.09
1015.67 1015.99 1016.23 1016.39 1016.50 1016.60 1016.70 1016.80 1016.91 1016.99 1017.03 1016.99 1016.85 1016.61 1016.25 1015.80 1015.28 1014.74 1014.20 1013.71 1013.30 1012.97 1012.74 1012.60 1012.54 1012.55 1012.62 1012.74 1012.92 1013.15 1013.43 1013.74 1014.08 1014.41 1014.72 1014.98 1015.16 1015.27 1015.30 1015.26 1015.18 1015.10 1015.05
1015.90 1016.17 1016.35 1016.47 1016.58 1016.69 1016.83 1016.99 1017.15 1017.28 1017.35 1017.33 1017.20 1016.94 1016.56 1016.07 1015.53 1014.95 1014.40 1013.89 1013.45 1013.09 1012.82 1012.63 1012.50 1012.44 1012.44 1012.49 1012.59 1012.76 1012.99 1013.28 1013.60 1013.95 1014.28 1014.58 1014.83 1015.00 1015.09 1015.11 1015.08 1015.04 1015.00
1016.11 1016.32 1016.46 1016.56 1016.65 1016.78 1016.94 1017.13 1017.33 1017.49 1017.58 1017.57 1017.43 1017.16 1016.77 1016.28 1015.72 1015.15 1014.59 1014.07 1013.62 1013.24 1012.93 1012.68 1012.49 1012.35 1012.25 1012.21 1012.23 1012.32 1012.49 1012.74 1013.05 1013.40 1013.76 1014.11 1014.42 1014.66 1014.83 1014.92 1014.95 1014.95 1014.94
1016.27 1016.44 1016.55 1016.63 1016.73 1016.87 1017.04 1017.25 1017.45 1017.62 1017.71 1017.69 1017.55 1017.27 1016.87 1016.39 1015.85 1015.29 1014.74 1014.24 1013.78 1013.38 1013.04 1012.74 1012.48 1012.25 1012.06 1011.93 1011.86 1011.87 1011.98 1012.19 1012.48 1012.84 1013.23 1013.63 1013.99 1014.30 1014.54 1014.70 1014.79 1014.83 1014.86
1016.36 1016.51 1016.62 1016.71 1016.82 1016.97 1017.15 1017.35 1017.55 1017.69 1017.76 1017.72 1017.56 1017.27 1016.88 1016.40 1015.88 1015.35 1014.83 1014.34 1013.90 1013.49 1013.12 1012.77 1012.44 1012.14 1011.87 1011.65 1011.51 1011.46 1011.52 1011.69 1011.96 1012.32 1012.73 1013.16 1013.58 1013.94 1014.24 1014.45 1014.60 1014.69 1014.74
1016.39 1016.56 1016.69 1016.81 1016.94 1017.10 1017.28 1017.47 1017.63 1017.74 1017.76 1017.68 1017.49 1017.19 1016.79 1016.34 1015.84 1015.34 1014.85 1014.38 1013.94 1013.53 1013.13 1012.75 1012.37 1012.01 1011.68 1011.40 1011.20 1011.10 1011.12 1011.26 1011.52 1011.88 1012.30 1012.75 1013.19 1013.59 1013.92 1014.18 1014.37 1014.49 1014.58
1016.39 1016.60 1016.77 1016.94 1017.10 1017.27 1017.45 1017.61 1017.73 1017.78 1017.75 1017.61 1017.38 1017.05 1016.65 1016.20 1015.72 1015.25 1014.78 1014.34 1013.91 1013.50 1013.09 1012.67 1012.26 1011.87 1011.49 1011.18 1010.94 1010.81 1010.80 1010.92 1011.16 1011.51 1011.92 1012.37 1012.82 1013.23 1013.58 1013.86 1014.07 1014.22 1014.33
1016.39 1016.66 1016.90 1017.12 1017.32 1017.50 1017.66 1017.78 1017.84 1017.83 1017.73 1017.53 1017.25 1016.89 1016.47 1016.02 1015.56 1015.10 1014.65 1014.22 1013.80 1013.38 1012.96 1012.54 1012.11 1011.69 1011.30 1010.96 1010.71 1010.56 1010.53 1010.63 1010.85 1011.17 1011.56 1011.98 1012.41 1012.81 1013.16 1013.44 1013.67 1013.84 1013.99
1016.44 1016.78 1017.08 1017.35 1017.58 1017.77 1017.90 1017.98 1017.98 1017.89 1017.71 1017.45 1017.11 1016.72 1016.28 1015.82 1015.36 1014.91 1014.47 1014.04 1013.62 1013.20 1012.78 1012.34 1011.90 1011.48 1011.08 1010.73 1010.47 1010.31 1010.26 1010.34 1010.53 1010.81 1011.15 1011.53 1011.92 1012.29 1012.62 1012.91 1013.14 1013.35 1013.52
1016.56 1016.96 1017.31 1017.61 1017.86 1018.05 1018.15 1018.18 1018.11 1017.96 1017.71 1017.39 1017.00 1016.56 1016.10 1015.63 1015.16 1014.71 1014.27 1013.84 1013.41 1012.98 1012.55 1012.10 1011.66 1011.22 1010.82 1010.47 1010.20 1010.03 1009.95 1009.99 1010.13 1010.36 1010.65 1010.97 1011.31 1011.64 1011.95 1012.23 1012.49 1012.72 1012.95
Thickness
5802 5800 5797 5794 5789 5784 5780 5776 5772 5769 5766 5763 5760 5758 5756 5756 5757 5758 5758 5757 5757 5756 5755 5755 5754 5753 5752 5752 5752 5750 5749 5747 5747 5744 5741 5743 5746 5747 5746 5746 5745 5744 5742
5800 5799 5796 5793 5788 5784 5781 5777 5774 5770 5768 5765 5763 5761 5759 5757 5757 5758 5757 5757 5757 5756 5756 5754 5753 5753 5752 5751 5751 5750 5747 5746 5747 5742 5736 5732 5735 5741 5746 5745 5744 5743 5742
5800 5797 5795 5791 5788 5785 5782 5779 5775 5772 5769 5767 5764 5761 5758 5756 5755 5755 5755 5757 5757 5756 5756 5755 5754 5753 5752 5750 5750 5749 5746 5743 5745 5745 5739 5730 5727 5733 5739 5742 5742 5741 5740
5803 5798 5796 5792 5789 5787 5785 5781 5777 5773 5771 5768 5764 5759 5755 5752 5754 5755 5755 5756 5757 5756 5755 5755 5754 5753 5752 5751 5750 5750 5748 5745 5741 5743 5743 5741 5738 5731 5729 5734 5738 5739 5738
5804 5799 5797 5794 5792 5789 5785 5782 5778 5774 5772 5769 5766 5761 5757 5756 5756 5755 5754 5754 5755 5756 5755 5754 5753 5752 5751 5751 5750 5749 5747 5746 5743 5741 5741 5739 5738 5736 5729 5726 5730 5733 5734
5805 5801 5799 5795 5791 5789 5785 5781 5777 5774 5772 5769 5766 5762 5759 5756 5754 5753 5752 5752 5753 5754 5754 5754 5753 5752 5751 5750 5749 5747 5746 5745 5744 5742 5740 5738 5735 5732 5730 5726 5725 5725 5728
5803 5799 5795 5792 5790 5787 5784 5781 5776 5772 5771 5768 5765 5763 5760 5757 5754 5753 5751 5750 5750 5750 5751 5752 5751 5750 5750 5749 5748 5746 5745 5744 5742 5741 5739 5738 5737 5736 5732 5727 5723 5722 5723
5803 5801 5798 5795 5791 5788 5785 5781 5776 5773 5770 5768 5765 5763 5760 5757 5755 5754 5752 5750 5749 5750 5751 5750 5750 5749 5748 5747 5746 5744 5743 5743 5741 5740 5738 5737 5736 5735 5733 5728 5723 5717 5716
5804 5802 5800 5797 5793 5789 5786 5782 5777 5773 5770 5767 5764 5762 5759 5757 5754 5753 5752 5751 5750 5750 5749 5749 5748 5747 5745 5744 5743 5741 5740 5740 5739 5738 5737 5735 5735 5734 5732 5729 5725 5718 5710
5805 5804 5801 5798 5794 5791 5787 5783 5778 5773 5770 5767 5764 5761 5758 5756 5754 5752 5750 5749 5749 5749 5747 5746 5745 5743 5742 5741 5739 5738 5737 5736 5735 5735 5733 5732 5731 5730 5729 5727 5724 5721 5714
5806 5803 5801 5798 5794 5790 5786 5781 5777 5773 5769 5766 5763 5760 5757 5755 5752 5750 5749 5748 5747 5746 5745 5743 5741 5740 5738 5737 5736 5734 5733 5732 5731 5731 5729 5728 5727 5726 5724 5723 5720 5717 5713
5806 5804 5801 5796 5792 5787 5784 5780 5776 5772 5769 5766 5762 5759 5756 5753 5750 5748 5746 5745 5744 5742 5741 5739 5738 5736 5735 5734 5732 5730 5729 5727 5726 5725 5724 5723 5723 5720 5719 5717 5715 5712 5710
5804 5801 5797 5793 5789 5786 5782 5779 5775 5771 5768 5765 5761 5757 5753 5750 5747 5745 5744 5743 5741 5738 5737 5736 5734 5732 5731 5729 5728 5726 5724 5723 5721 5720 5719 5717 5716 5714 5713 5711 5709 5707 5705
5802 5797 5792 5789 5787 5784 5780 5776 5773 5770 5767 5762 5758 5753 5750 5748 5745 5743 5741 5739 5737 5734 5732 5731 5729 5728 5726 5724 5723 5720 5719 5717 5715 5714 5713 5711 5710 5708 5707 5705 5702 5700 5696
5797 5794 5790 5787 5784 5781 5777 5774 5771 5768 5765 5759 5755 5752 5750 5747 5743 5740 5737 5735 5733 5730 5728 5726 5724 5722 5721 5719 5717 5715 5713 5711 5709 5708 5707 5705 5704 5702 5700 5698 5695 5692 5688
5795 5793 5790 5785 5782 5778 5775 5772 5768 5765 5762 5757 5752 5750 5747 5743 5739 5736 5733 5731 5728 5725 5723 5721 5718 5716 5715 5713 5712 5710 5707 5705 5702 5700 5699 5698 5696 5695 5694 5692 5689 5686 5682
5794 5790 5787 5784 5780 5777 5774 5769 5765 5762 5757 5753 5749 5746 5743 5739 5736 5733 5729 5725 5722 5720 5718 5715 5713 5710 5708 5707 5705 5703 5701 5698 5695 5693 5691 5690 5688 5686 5685 5683 5680 5678 5675
5791 5788 5785 5782 5779 5777 5773 5768 5762 5757 5752 5747 5744 5741 5738 5734 5731 5728 5724 5721 5718 5715 5712 5709 5707 5704 5702 5701 5699 5697 5694 5690 5688 5686 5684 5681 5679 5678 5676 5674 5670 5667 5664
5790 5787 5784 5781 5776 5772 5768 5762 5756 5751 5746 5742 5739 5736 5734 5730 5726 5722 5719 5716 5713 5709 5706 5703 5700 5698 5696 5694 5693 5690 5686 5682 5679 5678 5676 5674 5671 5670 5668 5665 5660 5657 5655
5786 5783 5780 5776 5770 5766 5762 5756 5750 5745 5741 5738 5736 5732 5729 5724 5720 5717 5714 5711 5707 5703 5700 5696 5694 5691 5689 5687 5686 5683 5679 5674 5671 5669 5667 5665 5663 5660 5658 5655 5651 5647 5645
5780 5778 5773 5767 5763 5760 5755 5748 5743 5739 5737 5734 5730 5726 5723 5719 5715 5711 5707 5703 5700 5696 5692 5689 5687 5684 5682 5680 5678 5676 5672 5668 5664 5660 5657 5655 5654 5651 5648 5645 5642 5639 5636
5773 5770 5765 5759 5756 5753 5748 5741 5736 5735 5731 5727 5723 5719 5715 5712 5708 5703 5699 5695 5691 5686 5683 5681 5678 5676 5673 5671 5669 5667 5665 5661 5657 5653 5649 5647 5645 5642 5639 5636 5633 5630 5627
5763 5761 5756 5750 5747 5744 5741 5734 5730 5728 5725 5719 5715 5710 5707 5703 5700 5695 5691 5686 5683 5679 5676 5673 5670 5667 5664 5662 5660 5658 5655 5652 5649 5645 5642 5638 5635 5632 5629 5627 5624 5620 5616
5752 5750 5746 5741 5737 5735 5733 5728 5725 5721 5717 5711 5706 5702 5697 5693 5690 5687 5683 5679 5675 5671 5668 5665 5662 5658 5655 5653 5650 5648 5646 5643 5639 5636 5633 5629 5626 5622 5620 5616 5613 5610 5606
5742 5741 5737 5732 5729 5726 5723 5721 5717 5714 5708 5703 5699 5694 5690 5685 5680 5676 5672 5669 5666 5664 5661 5658 5655 5651 5647 5645 5643 5639 5636 5633 5629 5625 5622 5618 5614 5611 5608 5605 5602 5599 5596
5734 5731 5727 5723 5720 5718 5714 5712 5710 5706 5700 5694 5690 5686 5681 5676 5672 5667 5662 5658 5657 5655 5653 5651 5648 5644 5641 5638 5635 5632 5628 5624 5620 5616 5611 5606 5603 5600 5597 5594 5591 5588 5585